Regional Weather Roundup
Issued by NWS

Home | Current Version | Previous Version | Text Only | Print | Product List | Glossary Off
Versions: 1 2 3 4 5 6 7 8 9 10 11 12 13 14 15 16 17 18 19 20 21 22 23 24 25 26 27 28 29 30 31 32 33 34 35 36 37 38 39 40 41 42 43 44 45 46 47 48 49 50

000
ASUS43 KLSX 230807
RWRMO

WEATHER SUMMARY FOR MISSOURI
NATIONAL WEATHER SERVICE SPRINGFIELD MO
300 AM CDT MON OCT 23 2017

NOTE: "FAIR" INDICATES FEW OR NO CLOUDS BELOW 12,000 FEET WITH NO
       SIGNIFICANT WEATHER AND/OR OBSTRUCTIONS TO VISIBILITY.
       CURRENT SKY AND/OR WEATHER CONDITIONS ARE NOT AVAILABLE FOR
       CHILLICOTHE AND FARMINGTON.

MOZ001>031-035>038-043-044-053-054-230900-
...NORTHERN AND WESTERN MISSOURI...

CITY           SKY/WX    TMP DP  RH WIND       PRES   REMARKS
KANSAS CTY INT CLEAR     43  39  86 S8        30.00F
KANSAS C DTWN  CLEAR     50  42  74 SW3       30.00F
LEE`S SUMMIT   CLEAR     47  42  83 SW8       30.02F
ST JOSEPH      CLEAR     46  41  82 S7        29.99F
CHILLICOTHE      N/A     42  42 100 CALM      30.02S
KIRKSVILLE     CLOUDY    46  46 100 S5        30.01F

$$
MOZ066>068-077>081-088>096-101>105-230900-
...SOUTHWEST MISSOURI...

CITY           SKY/WX    TMP DP  RH WIND       PRES   REMARKS
SPRINGFIELD    PTCLDY    49  47  93 SW5       30.04F
JOPLIN         CLEAR     44  43  96 MISG      30.07F
BRANSON        CLOUDY    48  46  93 CALM      30.06F

$$
MOZ032>034-039>042-045>050-055>058-069>072-230900-
...CENTRAL MISSOURI...

CITY           SKY/WX    TMP DP  RH WIND       PRES   REMARKS
COLUMBIA       CLOUDY    50  49  96 W3        30.00F
JEFFERSON CITY PTCLDY    51  48  89 W3        30.02F
ROLLA          CLOUDY    50  49  96 W7        30.01F
SEDALIA        PTCLDY    47  47 100 SW9       30.03F
WHITEMAN AFB   CLEAR     42  40  90 S3        29.98F
WARRENSBURG    CLEAR     41  37  87 SW7       30.02F
OSAGE BEACH    PTCLDY    50  50 100 S3        30.04F

$$
MOZ051-052-059>065-230900-
...EAST CENTRAL MISSOURI...

CITY           SKY/WX    TMP DP  RH WIND       PRES   REMARKS
ST LOUIS INTL  CLOUDY    51  51 100 NW10      29.93F
SPIRIT OF STL  CLOUDY    52  50  93 NW9       29.94F
ST CHARLES     CLOUDY    51  49  92 NW9       29.94S

$$
MOZ072>076-082>087-097>100-106>115-230900-
...SOUTH CENTRAL AND SOUTHEAST MISSOURI...

CITY           SKY/WX    TMP DP  RH WIND       PRES   REMARKS
CAPE GIRARDEAU CLOUDY    53  50  89 W8        29.92R
FARMINGTON     CLOUDY    50  48  93 NW9       29.96S
POPLAR BLUFF   CLOUDY    53  51  93 NW9       29.95S
WEST PLAINS    CLOUDY    50  48  93 NW7       30.02F

$$



USA.gov is the U.S. government's official web portal to all federal, state and local government web resources and services.